Huntington, WV

4:07 AM EDT on June 29, 2017 (GMT -0400)
Tri-State / Ferguson

Weather History for KHTS - December, 2010

Change the Weather History Date:

Friday, December 3, 2010

  Actual Average Record
Temperature  
Mean Temperature 33 °F 40 °F  
Max Temperature 35 °F 49 °F 80 °F (1982)
Min Temperature 30 °F 32 °F 10 °F (1942)
Degree Days  
Heating Degree Days 32 25  
Month to date heating degree days 95 73  
Since 1 July heating degree days 907 960  
Cooling Degree Days 0 0  
Month to date cooling degree days 0 0  
Year to date cooling degree days 1406 1134  
Moisture  
Dew Point 28 °F    
Average Humidity 86    
Maximum Humidity 100    
Minimum Humidity 72    
Precipitation  
Precipitation T in 0.11 in 1.46 in (1905)
Month to date precipitation 0.03 0.33  
Year to date precipitation 40.97 39.61  
Snow  
Snow T in - - ()
Month to date snowfall T  
Since 1 September snowfall T  
Snow Depth T in    
Sea Level Pressure  
Sea Level Pressure 30.17 in    
Wind  
Wind Speed 2 mph (NW)    
Max Wind Speed 10 mph    
Max Gust Speed 13 mph    
Visibility 7 miles    
Events Snow    
T = Trace of Precipitation, MM = Missing Value Source: NWS Daily Summary

Daily Weather History Graph

Daily Weather History Graph

Search for Another Location

Airport or City:

Trip Planner

Search our weather history database for the weather conditions in past years. The results will help you decide how hot, cold, wet, or windy it might be!

Date:

Astronomy

Dec. 03, 2010 Rise Set
Actual Time 7:30 AM EST 5:09 PM EST
Civil Twilight 7:01 AM EST 5:38 PM EST
Nautical Twilight 6:28 AM EST 6:11 PM EST
Astronomical Twilight 5:56 AM EST 6:43 PM EST
Moon 5:17 AM EST (12/3) 3:25 PM EST (12/3)
Length of Visible Light 10h 37m
Length of Day
9h 39m
Waning Crescent, 5% of the Moon is Illuminated
Dec 3
Waning Crescent
Dec 5
New
Dec 13
First Quarter
Dec 21
Full
Dec 27
Last Quarter

Hourly Weather History & Observations

Time (EST) Temp. Windchill Dew Point Humidity Pressure Visibility Wind Dir Wind Speed Gust Speed Precip Events Conditions
12:51 AM 30.9 °F 27.5 °F 27.0 °F 85% 30.19 in 10.0 mi SW 3.5 mph - N/A   Overcast
1:51 AM 30.9 °F 26.2 °F 27.0 °F 85% 30.19 in 10.0 mi SW 4.6 mph - 0.00 in   Overcast
2:28 AM 30.2 °F - 28.4 °F 93% 30.17 in 10.0 mi Calm Calm - N/A   Overcast
2:51 AM 30.9 °F - 28.0 °F 89% 30.19 in 7.0 mi Calm Calm - 0.00 in Snow Light Snow
3:51 AM 30.9 °F - 28.9 °F 92% 30.18 in 5.0 mi Calm Calm - 0.00 in   Overcast
4:16 AM 30.2 °F 26.7 °F 28.4 °F 93% 30.16 in 6.0 mi South 3.5 mph - 0.00 in Snow Light Snow
4:51 AM 30.2 °F - 28.4 °F 93% 30.15 in 6.0 mi Calm Calm - N/A Snow Light Snow
5:25 AM 30.2 °F 26.7 °F 28.4 °F 93% 30.16 in 6.0 mi SSW 3.5 mph - 0.00 in   Overcast
5:32 AM 30.2 °F 26.7 °F 28.4 °F 93% 30.16 in 6.0 mi SSW 3.5 mph - 0.00 in   Overcast
5:51 AM 30.9 °F - 28.9 °F 92% 30.17 in 6.0 mi Calm Calm - 0.00 in   Overcast
6:24 AM 30.2 °F 26.7 °F 28.4 °F 93% 30.15 in 3.0 mi SW 3.5 mph - 0.00 in Snow Light Snow
6:51 AM 30.0 °F 26.5 °F 28.9 °F 96% 30.17 in 4.0 mi SSW 3.5 mph - 0.00 in Snow Light Snow
7:51 AM 30.9 °F - 28.9 °F 92% 30.17 in 5.0 mi Calm Calm - 0.00 in   Overcast
8:32 AM 30.2 °F - 28.4 °F 93% 30.15 in 4.0 mi Calm Calm - N/A   Overcast
8:51 AM 30.9 °F - 30.0 °F 96% 30.18 in 4.0 mi Calm Calm - N/A   Overcast
9:51 AM 32.0 °F - 28.9 °F 88% 30.19 in 8.0 mi Calm Calm - N/A   Overcast
10:10 AM 32.0 °F - 28.4 °F 87% 30.16 in 9.0 mi Calm Calm - N/A   Overcast
11:51 AM 33.8 °F 30.8 °F 28.4 °F 81% 30.15 in 6.0 mi North 3.5 mph - N/A   Haze
12:06 PM 33.8 °F 29.6 °F 28.4 °F 81% 30.15 in 5.0 mi North 4.6 mph - N/A   Haze
12:51 PM 34.0 °F 27.2 °F 28.9 °F 82% 30.16 in 3.0 mi NNW 8.1 mph - 0.00 in Snow Light Snow
1:22 PM 33.8 °F 28.6 °F 28.4 °F 81% 30.13 in 3.0 mi North 5.8 mph - 0.00 in Snow Light Snow
1:51 PM 33.1 °F 26.9 °F 28.0 °F 82% 30.15 in 5.0 mi NNW 6.9 mph - 0.00 in   Haze
1:58 PM 33.8 °F 27.7 °F 28.4 °F 81% 30.13 in 5.0 mi NNW 6.9 mph - N/A   Overcast
2:26 PM 33.8 °F 30.8 °F 28.4 °F 81% 30.12 in 6.0 mi North 3.5 mph - N/A   Haze
2:51 PM 33.1 °F - 28.0 °F 82% 30.15 in 9.0 mi Calm Calm - N/A   Overcast
3:33 PM 33.8 °F 28.6 °F 28.4 °F 81% 30.15 in 10.0 mi NNW 5.8 mph - N/A   Overcast
3:51 PM 34.0 °F 28.0 °F 27.0 °F 75% 30.17 in 10.0 mi NW 6.9 mph - N/A   Overcast
4:21 PM 33.8 °F 27.7 °F 26.6 °F 75% 30.15 in 10.0 mi NW 6.9 mph - N/A   Overcast
4:34 PM 33.8 °F 29.6 °F 26.6 °F 75% 30.15 in 10.0 mi NW 4.6 mph - N/A   Overcast
4:51 PM 34.0 °F 31.0 °F 26.1 °F 73% 30.17 in 10.0 mi North 3.5 mph - N/A   Overcast
5:51 PM 33.1 °F 30.0 °F 26.1 °F 75% 30.19 in 10.0 mi North 3.5 mph - N/A   Overcast
6:51 PM 33.1 °F - 26.1 °F 75% 30.19 in 10.0 mi Calm Calm - N/A   Overcast
7:51 PM 33.1 °F - 26.1 °F 75% 30.19 in 10.0 mi Calm Calm - N/A   Overcast
8:51 PM 33.1 °F - 26.1 °F 75% 30.20 in 10.0 mi Calm Calm - N/A   Overcast
9:51 PM 32.0 °F - 25.0 °F 75% 30.20 in 10.0 mi Calm Calm - N/A   Mostly Cloudy
10:51 PM 30.0 °F - 25.0 °F 82% 30.18 in 10.0 mi Calm Calm - N/A   Partly Cloudy
11:51 PM 30.0 °F - 26.1 °F 85% 30.17 in 10.0 mi Calm Calm - N/A   Clear